This demonstration page uses our WeatherBlox Daily Observations layout. Learn more.

Left ArrowRight Arrow

Hourly Observations for September 13, 2020

Temp ( °F °C ) Dew Point ( °F °C ) Humidity (%) Winds ( mph kmh ) Pressure ( in mb ) Visibility ( mi km ) Precip ( " mm )
12:51 am 00:51 Clear 68 20 48 8.9 49 49 ESE 7 11 29.89 1012 10 16.0934 0 0
1:51 am 01:51 Clear 67 19.4 48 8.9 51 51 ESE 7 11 29.89 1012 10 16.0934 0 0
2:51 am 02:51 Clear 71 21.7 47 8.3 42 42 ESE 12 19 29.89 1012 10 16.0934 0 0
3:51 am 03:51 Clear 69 20.6 47 8.3 45 45 ESE 8 13 29.9 1013 10 16.0934 0 0
4:51 am 04:51 Clear 67 19.4 47 8.3 49 49 ESE 9 15 29.92 1013 10 16.0934 0 0
5:51 am 05:51 Clear 68 20 47 8.3 47 47 SE 13 20 29.94 1014 10 16.0934 0 0
6:51 am 06:51 Sunny 70 21.1 48 8.9 46 46 SE 12 19 29.97 1015 10 16.0934 0 0
7:51 am 07:51 Sunny 73 22.8 47 8.3 40 40 ESE 14 22 29.99 1016 10 16.0934 0 0
8:51 am 08:51 Sunny 75 23.9 49 9.4 40 40 SE 10 17 30 1016 10 16.0934 0 0
9:51 am 09:51 Sunny 81 27.2 47 8.3 30 30 SE 8 13 29.99 1016 10 16.0934 0 0
10:51 am 10:51 Sunny 84 28.9 47 8.3 27 27 SE 9 15 29.98 1015 10 16.0934 0 0
11:51 am 11:51 Sunny 88 31.1 50 10 27 27 ESE 12 19 29.95 1014 10 16.0934 0 0
12:51 pm 12:51 Sunny 91 32.8 49 9.4 24 24 SSE 17 28 29.92 1013 10 16.0934 0 0
1:51 pm 13:51 Sunny 92 33.3 44 6.7 19 19 SSE 9 15 29.89 1012 10 16.0934 0 0
2:51 pm 14:51 Sunny 92 33.3 43 6.1 18 18 ESE 6 9 29.86 1011 10 16.0934 0 0
3:51 pm 15:51 Sunny 93 33.9 42 5.6 17 17 ESE 9 15 29.85 1011 10 16.0934 0 0
4:51 pm 16:51 Sunny 92 33.3 42 5.6 18 18 SE 13 20 29.85 1011 10 16.0934 0 0
5:51 pm 17:51 Sunny 88 31.1 41 5 19 19 SSE 13 20 29.87 1011 10 16.0934 0 0
6:51 pm 18:51 Clear 85 29.4 40 4.4 20 20 SE 9 15 29.88 1012 10 16.0934 0 0
7:51 pm 19:51 Clear 82 27.8 41 5 23 23 ESE 9 15 29.91 1013 10 16.0934 0 0
8:51 pm 20:51 Clear 80 26.7 40 4.4 24 24 E 10 17 29.93 1014 10 16.0934 0 0
9:51 pm 21:51 Clear 80 26.7 41 5 25 25 E 13 20 29.93 1014 10 16.0934 0 0
10:51 pm 22:51 Clear 77 25 41 5 28 28 S 9 15 29.96 1014 10 16.0934 0 0
11:51 pm 23:51 Clear 75 23.9 41 5 29 29 SSE 12 19 29.96 1015 10 16.0934 0 0

Powered by AerisWeather